Погода в Городище

Россия / Пермский край     59°40′07″N   56°51′33″E
темп.,
°C
ветер,
м/с
пор.,
м/с
влажн.,
%
обл.,
%
осадки,
мм/ч
давл.,
гПа
погр.,
м
14 августа, вс
вс1423:00+10з237578 0.0 101945
02:00+11зсз39686 0.0 1019266
05:00+11з286891 0.0 1020239
08:00+13сз36665 0.0 1020256
11:00+18сз36465 0.0 10201439
14:00+19сз463633 0.0 10202407
17:00+19ссз463749 0.0 10202193
20:00+15ссв2659100 0.0 1021183
15 августа, пн
пн1523:00+11ссв227269 0.0 102213
02:00+10ссв227410 0.0 102331
05:00+7всв00898 0.0 102410
08:00+12с016831 0.0 1024164
11:00+17зсз244610 0.0 10241049
14:00+20сз353980 0.0 10232085
17:00+19зсз245080 0.0 1023719
20:00+17з255994 0.0 1022113
16 августа, вт
вт1623:00+13сз257069 0.0 102379
02:00+14зсз126569 0.0 102340
05:00+11ссз11830 0.0 102411
08:00+14сз24731 0.0 1024220
11:00+18ссз47535 0.0 10241271
14:00+20ссз57337 0.0 10241766
17:00+20ссз573415 0.0 10241714
20:00+15с265324 0.0 1025172
17 августа, ср
ср1723:00+11с1161100 0.0 102611
02:00+11всв0059100 0.0 102611
05:00+12з1156100 0.0 102619
08:00+12с1168100 0.1 102632
11:00+11ю0190100 0.8 102545
14:00+11ю1294100 0.3 1024143
17:00+12всв118750 0.5 1024333
20:00+13св358187 0.0 1024343
18 августа, чт
чт1823:00+9с00935 0.0 102510
02:00+8юв0094100 0.0 102610
05:00+7сз0095100 0.0 102610
08:00+11зсз128458 0.0 1027143
11:00+16сз2457100 0.0 1026838
14:00+19сз355084 0.1 10251961
17:00+19зсз2453100 0.1 1025810
20:00+16ссв22635 0.0 102522